Location: ???????
(30.4895°N, 47.9230°E)
Time: 07:24:12
(UTC+00:00)

Daily predictions for brighter satellites

Satellite Brightness Start Highest point End
(mag) Time Altitude Azimuth Time Altitude Azimuth Time Altitude Azimuth
Ariane Rocket 3.6 15:58:14 10° SE 16:02:56 40° ENE 16:07:39 10° N
Hubble Space Telescope 1.0 16:00:13 10° WSW 16:04:15 53° S 16:08:16 10° E
STARLINK-1194 4.2 16:04:55 10° WNW 16:08:13 41° SW 16:11:30 10° SSE
STARLINK-1199 3.6 16:04:14 10° SSW 16:08:18 62° SE 16:12:24 10° NE
STARLINK-1193 4.3 16:06:24 10° WNW 16:09:40 40° SW 16:12:56 10° SSE
STARLINK-1184 4.3 16:07:52 10° WNW 16:11:08 38° SW 16:14:23 10° SSE
STARLINK-1127 4.4 16:09:23 10° WNW 16:12:37 36° SW 16:15:50 10° SSE
Cosmos 1862 Rocket 3.7 16:08:27 10° S 16:12:47 54° E 16:17:05 10° NNE
STARLINK-1210 3.5 16:09:11 10° SW 16:13:16 71° SE 16:17:24 10° NE
SEDSat Delta rocket 4.2 16:06:56 10° W 16:13:45 85° N 16:20:26 10° E
DELTA 2 R/B (1) 3.6 16:08:22 10° WNW 16:13:56 81° SSW 16:19:31 10° ESE
STARLINK-1142 4.5 16:10:54 10° WNW 16:14:07 35° SW 16:17:19 10° SSE
NOSS 2-3 (E) 4.1 16:11:35 10° S 16:15:18 32° ESE 16:19:12 10° NE
STARLINK-1164 4.5 16:12:40 10° NNW 16:16:33 38° NE 16:20:24 10° ESE
HJ-1C 4.1 16:14:17 10° S 16:17:31 55° W 16:20:46 10° NNW
Cosmos 1733 Rocket 3.6 16:13:52 10° N 16:17:58 40° E 16:22:02 10° SSE
STARLINK-1219 3.5 16:14:07 10° SW 16:18:14 80° SE 16:22:22 10° NE
STARLINK-1182 4.3 16:17:36 10° NNW 16:21:33 42° NE 16:25:12 12° ESE
STARLINK-1211 3.6 16:19:04 10° SW 16:23:11 90° SE 16:27:20 10° NE
IRS-1A Rocket 4.4 16:19:24 10° SSE 16:25:13 68° ENE 16:30:58 10° N
FREGAT/IRIS 2.6 16:22:39 10° SSE 16:25:13 48° ENE 16:27:48 10° N
STARLINK-1163 4.1 16:22:31 10° NNW 16:26:32 47° NE 16:29:59 13° ESE
STARLINK-1245 3.7 16:24:03 10° SW 16:28:11 81° NW 16:32:19 10° NE
Cosmos 1943 4.0 16:23:03 10° NNW 16:28:32 52° WSW 16:33:57 10° S
Delta 128 4.3 16:22:59 10° WSW 16:29:23 65° S 16:34:45 10° E
ARGOS 3.1 16:25:01 10° SSE 16:30:21 74° ENE 16:35:43 10° N
ASTEX 1 4.0 16:26:22 10° SSE 16:30:52 38° E 16:35:23 10° NNE
STARLINK-1172 4.0 16:27:28 10° NNW 16:31:31 53° NE 16:34:47 15° ESE
Resurs 01 Rocket 3.4 16:30:01 11° ESE 16:32:23 17° ENE 16:35:12 10° NNE
Cosmos 389 Rocket 3.3 16:29:34 10° SSE 16:32:35 29° E 16:35:38 10° NNE
STARLINK-1233 3.9 16:29:02 10° SW 16:33:09 72° NW 16:37:17 10° NE
Cosmos 1743 4.5 16:31:19 10° NE 16:33:40 16° ENE 16:34:59 14° E
MONITOR-E 4.0 16:31:50 14° SSE 16:33:49 47° ENE 16:36:18 10° N
Cosmos 1464 Rocket 4.3 16:28:47 10° N 16:34:59 53° E 16:41:11 10° SSE
NOSS 2-3 (D) 3.6 16:31:12 10° SSW 16:35:12 51° ESE 16:39:28 10° NE
CZ-2C R/B 2.8 16:30:50 10° NNE 16:36:20 57° E 16:41:50 10° S
STARLINK-1145 3.8 16:32:24 10° NW 16:36:29 60° NE 16:39:33 17° ESE
STARLINK-1204 4.1 16:34:03 10° SW 16:38:08 63° NW 16:42:15 10° NE
STARLINK-1161 3.7 16:37:19 10° NW 16:41:26 68° NE 16:44:18 19° SE
STARLINK-1238 4.4 16:39:03 10° SW 16:43:06 56° NW 16:47:11 10° NE
Cosmos 405 Rocket 4.5 16:39:29 10° NNW 16:43:07 34° W 16:46:42 10° SSW
BREEZE M DEB (TANK) 3.5 16:42:27 10° NNW 16:44:56 25° NNE 16:46:00 17° ENE
USA 229 DEB 4.1 16:39:00 10° SW 16:45:20 63° WNW 16:51:59 10° NNE
USA 229 4.1 16:39:07 10° SW 16:45:27 63° WNW 16:52:05 10° NNE
STARLINK-1160 3.6 16:42:17 10° NW 16:46:25 76° NE 16:49:06 21° SE
Cosmos 1703 Rocket 3.9 16:42:54 11° SSE 16:46:48 41° E 16:50:52 10° NNE
Cosmos 2278 Rocket 3.1 16:43:43 11° SSE 16:48:06 27° ESE 16:52:45 10° NE
STARLINK-1170 3.6 16:47:15 10° NW 16:51:24 86° NE 16:53:53 23° SE
USA 186 2.6 16:49:33 10° SSW 16:51:38 33° W 16:53:52 10° NNW
NOSS 3-1 (C) 4.4 16:48:15 10° SW 16:53:16 44° NW 16:58:52 10° NNE
MOS 1 Rocket 3.4 16:49:02 10° N 16:53:25 70° WNW 16:57:38 10° SSW
GPS 2-04 Rocket1 3.1 16:50:57 10° SW 16:54:11 33° SSE 16:55:18 27° ESE
NOSS 3-1 (A) 3.3 16:49:29 10° SSW 16:54:41 78° WNW 17:00:33 10° NNE
STARLINK-1216 4.4 16:52:00 10° S 16:55:32 28° SE 16:59:05 10° ENE
Cosmos 1844 Rocket 4.1 16:50:55 10° SW 16:56:14 41° WNW 17:01:34 10° N
STARLINK-1150 3.6 16:52:15 10° NW 16:56:23 84° SW 16:58:41 26° SE
Okean 1 3.3 16:54:56 13° S 16:58:24 61° E 17:02:23 10° NNE
STARLINK-1237 4.3 16:56:50 10° S 17:00:29 31° SE 17:04:11 10° ENE
STARLINK-1151 3.6 16:57:13 10° NW 17:01:21 74° SW 17:03:27 28° SSE
Meteor 1-18 Rocket 4.2 16:56:00 10° S 17:01:25 59° E 17:06:54 10° NNE
Tsikada Rocket 4.0 16:56:49 10° S 17:02:57 64° E 17:09:03 10° NNE
SPOT 3 Rocket 3.5 16:59:29 19° SSE 17:03:07 67° ENE 17:08:14 10° N
Cosmos 2346 Rocket 4.4 16:57:22 10° S 17:03:25 89° E 17:09:33 10° N
DNEPR-1 R/B 4.0 16:58:18 10° NNW 17:04:06 71° ENE 17:06:44 27° SE
ATLAS 3B CENTAUR R/B 3.9 16:50:21 10° SW 17:04:28 40° SSE 17:09:03 22° ESE
STARLINK-1202 4.1 17:01:40 10° SSW 17:05:27 35° SE 17:09:15 10° ENE
NOSS 2-3 (C) 3.9 17:01:49 10° SW 17:05:54 64° WNW 17:10:22 10° NNE
STARLINK-1133 3.8 17:02:13 10° NW 17:06:18 66° SW 17:08:14 30° SSE
Cosmos 1908 Rocket 3.7 17:02:53 10° N 17:07:15 55° E 17:09:15 29° SSE
Cosmos 1666 4.1 17:07:38 10° NNW 17:11:12 37° W 17:14:43 10° SSW
STARLINK-1139 3.9 17:07:14 10° NW 17:11:17 57° SW 17:13:01 31° SSE
Resurs 1-3 3.5 17:09:37 27° SSE 17:11:58 76° ENE 17:16:21 10° N
H-2A R/B 3.8 17:10:53 10° SSW 17:15:04 27° W 17:19:20 10° NW
STARLINK-1157 3.9 17:11:58 10° NNW 17:15:04 36° NE 17:15:33 34° ENE
STARLINK-1246 3.8 17:11:24 10° SSW 17:15:21 45° SE 17:19:19 10° NE
Cosmos 1624 Rocket 3.9 17:10:40 10° SSW 17:15:57 82° ESE 17:21:18 10° NNE
STARLINK-1174 4.1 17:12:14 10° NW 17:16:14 50° SW 17:17:48 32° S
BREEZE-M DEB (TANK) 4.4 17:15:59 10° N 17:17:45 19° NE 17:17:45 19° NE
OAO 3 Copernicus 4.2 17:14:51 10° WNW 17:19:55 89° SSW 17:21:59 36° ESE
Cosmos 1515 3.6 17:19:11 44° SSE 17:20:12 66° E 17:23:59 10° NNE
STARLINK-1224 3.6 17:16:19 10° SSW 17:20:19 52° SE 17:24:21 10° NE
Centaur D-1A AC-32 3.7 16:58:13 10° W 17:20:24 53° SSW 17:23:01 31° SE
STARLINK-1149 4.3 17:17:14 10° NW 17:21:12 45° SW 17:22:34 32° S
Meteor 2-4 Rocket 3.9 17:23:13 35° SE 17:24:51 45° E 17:29:57 10° NNE
STARLINK-1225 3.5 17:21:13 10° SSW 17:25:17 59° SE 17:29:21 10° NE
GOES 2 Rocket 4.0 17:20:41 10° W 17:28:17 68° S 17:30:44 37° ESE
COSMOS 2406 4.3 17:24:41 10° N 17:29:35 28° ENE 17:30:51 26° E
Cosmos 1140 Rocket 4.3 17:25:29 10° N 17:30:10 33° ENE 17:30:58 31° E
Cosmos 1371 Rocket 4.5 17:24:57 10° SSW 17:30:10 61° WNW 17:35:21 10° N
STARLINK-1230 3.4 17:26:10 10° SSW 17:30:15 67° SE 17:34:22 10° NE
Meteor 1-4 Rocket 2.3 17:30:48 76° ENE 17:30:48 76° ENE 17:34:09 10° N
Cosmos 614 Rocket 4.0 17:26:09 10° N 17:31:11 63° ENE 17:32:33 45° SE
Delta 198 4.2 17:28:53 10° WSW 17:31:50 31° SSW 17:31:50 31° SSW
STARLINK-1120 4.5 17:29:39 10° NNW 17:33:29 36° NE 17:34:05 35° ENE
STARLINK-1243 3.4 17:31:06 10° SW 17:35:13 76° SE 17:39:21 10° NE
MetOp-B 4.3 17:34:05 42° ESE 17:35:27 53° ENE 17:40:39 10° N
ERBS 3.1 17:34:10 10° SW 17:37:22 49° NW 17:40:35 10° NNE
STARLINK-1131 4.3 17:34:34 10° NNW 17:38:29 40° NE 17:38:51 39° ENE
STARLINK-1236 3.4 17:36:03 10° SW 17:40:11 86° SE 17:44:20 10° NE
ERS-1 Rocket 4.4 17:40:23 22° ENE 17:40:23 22° ENE 17:44:08 10° NNE
Okean 3 3.6 17:42:10 57° ENE 17:42:10 57° ENE 17:46:09 10° NNE
STARLINK-1190 4.2 17:39:29 10° NNW 17:43:27 45° NE 17:43:37 45° NE
Hubble Space Telescope 0.9 17:41:12 10° W 17:44:51 60° SW 17:44:51 60° SW
Spot 2 Rocket 3.6 17:47:33 53° E 17:48:04 56° ENE 17:53:00 10° N
STARLINK-1129 4.0 17:44:26 10° NNW 17:48:25 51° NE 17:48:25 51° NE
STARLINK-1269 3.7 17:46:00 10° SW 17:50:07 75° NW 17:54:15 10° NE
STARLINK-1134 4.0 17:49:24 10° NW 17:53:13 56° NNE 17:53:13 56° NNE
Cosmos 44 Rocket 3.7 17:50:16 10° NW 17:55:05 57° WSW 17:55:58 49° SSW
STARLINK-1200 3.9 17:51:01 10° SW 17:55:07 66° NW 17:59:14 10° NE
Cosmos 909 Rocket 4.2 17:48:12 10° NNW 17:55:29 65° ENE 17:57:07 49° ESE
STARLINK-1135 4.0 17:54:19 10° NW 17:57:59 59° N 17:57:59 59° N
USA 245 4.1 18:00:19 42° N 18:00:19 42° N 18:02:38 10° N
Aureole 1 Rocket 3.4 17:55:12 10° NNW 17:59:50 74° ENE 18:00:22 68° ESE
STARLINK-1192 4.1 17:56:02 10° SW 18:00:06 58° NW 18:04:11 10° NE
SEDSat Delta rocket 3.8 17:53:51 10° W 18:00:39 89° S 18:02:20 53° E
Cosmos 2221 Rocket 3.5 18:01:11 85° WNW 18:01:11 85° WNW 18:05:40 10° N
Cosmos 1544 3.9 17:57:38 10° N 18:00:23 48° NNW 18:00:23 48° NNW
Terra 3.6 18:03:58 20° NE 18:03:58 20° NE 18:06:29 10° NNE
SAR-Lupe-2 4.5 17:59:38 10° N 18:02:48 47° WNW 18:02:48 47° WNW
STARLINK-1141 4.0 17:59:17 10° NW 18:02:47 59° NNW 18:02:47 59° NNW
STARLINK-1244 4.3 18:01:02 10° WSW 18:05:04 52° NW 18:09:07 10° NNE
Cosmos 2082 Rocket 3.8 18:02:12 10° NNE 18:06:25 21° ENE 18:06:28 21° ENE
Cosmos 1023 Rocket 4.3 18:02:37 10° NNW 18:07:51 84° ENE 18:08:00 82° ESE
STARLINK-1140 4.2 18:04:14 10° NW 18:07:32 55° NNW 18:07:32 55° NNW
Resurs 01 Rocket 2.9 18:07:35 30° SW 18:08:33 33° W 18:12:36 10° NNW
Lacrosse 5 4.3 18:11:03 10° NNE 18:12:50 12° NE 18:14:10 11° NE
STARLINK-1156 4.4 18:09:13 10° NW 18:12:20 50° NW 18:12:20 50° NW
Cosmos 1833 Rocket 3.4 18:08:11 10° N 18:13:14 40° ENE 18:13:14 40° ENE
Delta 128 4.4 18:13:29 10° W 18:17:59 50° WSW 18:17:59 50° WSW
Cosmos 371 Rocket 3.5 18:21:37 67° NW 18:21:37 67° NW 18:26:09 10° N
Sich 1 Rocket 4.2 18:17:15 10° NNW 18:21:26 54° WNW 18:21:26 54° WNW
Cosmos 2279 Rocket 3.8 18:17:18 10° N 18:23:33 75° E 18:23:44 74° E
Cosmos 1452 Rocket 3.9 18:29:07 57° W 18:29:35 60° WNW 18:34:48 10° N
Cosmos 2278 Rocket 3.8 18:26:58 10° SW 18:31:58 32° WNW 18:36:59 10° N
Milstar 3 Cent rocket 4.5 18:24:17 10° SW 18:34:05 47° SE 18:54:36 10° E
Okean 2 Rocket 4.2 18:33:03 10° NNW 18:36:07 42° NNW 18:36:07 42° NNW
SPOT 5 3.5 18:42:24 55° N 18:42:24 55° N 18:46:27 10° N
SPOT 1/Viking Rocket 4.4 18:50:40 44° WNW 18:50:40 44° WNW 18:54:59 10° NNW
H-2A ROCKET BODY 3.8 18:55:45 47° SSW 18:58:34 62° SSE 19:39:09 10° E
SeaSat 1 4.0 19:22:10 10° N 19:25:14 33° NNW 19:25:14 33° NNW
ATLAS 3B CENTAUR R/B 4.4 19:19:32 10° WSW 19:23:23 23° WSW 19:23:23 23° WSW
Terra 4.1 19:42:50 20° NW 19:42:50 20° NW 19:44:37 10° NW
Cosmos 2082 Rocket 3.8 19:45:16 10° NW 19:48:19 29° NW 19:48:19 29° NW
Lacrosse 5 4.0 19:51:29 10° NNW 19:53:20 23° NNW 19:53:20 23° NNW
Cosmos 2369 Rocket 3.8 20:00:01 30° NNE 20:00:01 30° NNE 20:02:48 10° NNE
Cosmos 1943 Rocket 3.8 20:06:48 30° NNW 20:06:48 30° NNW 20:09:55 10° N
USA 215 4.0 20:13:36 45° NNE 20:13:36 45° NNE 20:19:18 10° NNW
COSMOS 2455 4.4 20:49:04 30° NNE 20:49:04 30° NNE 20:51:59 10° NNE
CENTAUR R/B 3.9 20:43:46 10° NNW 20:51:45 46° NE 20:52:59 43° ENE
ATLAS 2AS CENTAUR R/B 3.6 21:04:34 51° NW 21:04:34 51° NW 21:12:01 10° NNE
FALCON 9 R/B 3.3 21:21:02 61° NE 21:21:02 61° NE 21:34:32 10° E
ATLAS CENTAUR R/B 4.4 21:46:58 13° N 21:46:58 13° N 21:47:38 10° N
CZ-2D R/B 3.9 21:43:29 10° NNE 21:46:07 25° NE 21:46:07 25° NE
Resurs 1-4 Rocket 3.7 21:50:09 10° NNE 21:53:09 30° NE 21:53:09 30° NE
SL-16 R/B 3.7 21:57:03 34° E 21:57:35 35° ENE 22:03:03 10° N
Cosmos 1980 Rocket 3.8 22:35:02 23° ESE 22:35:12 23° ESE 22:39:32 10° NE
CZ-4B R/B 4.3 22:30:36 10° NNE 22:34:28 51° NNE 22:34:28 51° NNE
ATLAS 3B R/B 2.7 22:32:15 10° NNW 22:38:27 72° NW 22:38:27 72° NW
CENTAUR R/B 4.0 22:34:42 10° NW 22:40:06 34° WNW 22:40:06 34° WNW
Cosmos 2219 3.9 22:37:42 10° N 22:43:09 48° ENE 22:44:04 44° E
CZ-4C R/B 2.4 22:52:49 56° NNE 22:52:49 56° NNE 22:57:06 10° NNE
Cosmos 1709 Rocket 4.0 22:57:43 62° WNW 22:57:43 62° WNW 23:03:16 10° N
Cosmos 2297 Rocket 2.9 22:51:49 10° N 22:57:19 50° ENE 22:59:20 35° ESE
Cosmos 2278 4.1 22:59:12 51° ESE 22:59:24 51° ESE 23:04:51 10° NNE
SJ 16-02 2.4 22:55:25 10° N 22:59:12 43° NE 22:59:12 43° NE
IRS-1D 3.6 22:56:41 10° NNE 23:01:30 73° N 23:01:30 73° N
Cosmos 1763 Rocket 3.9 23:04:04 53° NNW 23:04:04 53° NNW 23:08:13 10° N
Cosmos 1455 4.2 23:16:18 10° NNW 23:17:46 22° NNW 23:17:46 22° NNW
Cosmos 1697 Rocket 2.9 23:25:48 53° WNW 23:26:03 53° WNW 23:31:36 10° N
ADEOS II 2.0 23:20:57 10° N 23:26:10 66° WNW 23:26:20 66° W
IRS-P3 4.0 23:21:48 10° N 23:27:06 71° WNW 23:27:29 68° WSW
CZ-2D R/B 3.7 23:24:07 10° NNW 23:27:27 21° WNW 23:27:27 21° WNW
ARIANE 5 R/B 2.4 23:25:32 10° NNE 23:30:35 80° ESE 23:31:19 64° S
Cosmos 2227 Rocket 2.1 23:27:23 10° NNW 23:33:05 88° WSW 23:35:29 37° SSE
SL-16 R/B 4.3 23:29:51 10° SE 23:33:49 20° E 23:37:53 10° NE
Resurs 1-4 Rocket 3.8 23:31:05 10° NNW 23:34:14 18° WNW 23:34:14 18° WNW
Cosmos 489 Rocket 4.4 23:34:04 46° S 23:36:01 82° ESE 23:42:16 10° NNE
Cosmos 1898 Rocket 3.4 23:32:24 10° NNW 23:37:44 83° WSW 23:39:14 48° S
Spot 4 Rocket 4.2 23:33:11 10° NNE 23:38:18 67° ESE 23:39:56 42° SSE
Cosmos 2074 Rocket 3.9 23:36:56 47° SSW 23:38:56 80° W 23:45:15 10° N
Cosmos 1570 Rocket 4.3 23:38:39 47° W 23:38:59 48° WNW 23:44:07 10° N
SL-16 R/B 3.6 23:42:09 27° W 23:42:09 27° W 23:46:18 10° NW
Cosmos 1400 Rocket 3.5 23:37:54 10° N 23:41:57 53° E 23:43:27 34° SE
Cosmos 2208 Rocket 4.1 23:42:34 51° W 23:43:06 53° WNW 23:48:15 10° N
CZ-2D R/B 3.6 23:39:29 10° NNE 23:43:38 72° E 23:44:18 59° SSE
ATLAS CENTAUR R/B 3.4 23:40:55 10° NNW 23:45:10 66° ENE 23:56:27 10° SE
Cosmos 1937 Rocket 3.5 23:41:17 10° NNW 23:46:33 84° ENE 23:50:15 20° SSE
STARLINK-26 3.6 23:49:55 57° E 23:49:55 57° E 23:52:58 10° NE
IDEFIX/ARIANE 42P 3.0 23:44:55 10° NNE 23:50:07 59° E 23:52:58 26° S
Cosmos 2184 Rocket 4.0 23:49:24 42° SSW 23:51:29 65° W 23:57:37 10° N
STARLINK-42 3.8 23:52:57 45° E 23:52:57 45° E 23:55:39 10° NE
Chunghua 1 4.4 23:56:26 71° SSE 23:56:26 71° SSE 23:59:52 10° ESE
